sat.trackr.live / text

‹ back to catalog

HUYGENS

NORAD 55093 · 2023-001CN

PAYLOAD ACTIVE UNKNOWN

§ Identity

Operator
Country
NOR
Launch date
2023-01-03
Launch site
AFETR
Launch vehicle
Mass (kg)
RCS (m²)

External: N2YO · Heavens-Above · Gunter

§ Orbital elements

Epoch: 2026-09-21T23:25:06.117600Z

Period
93.41 min
Inclination
97.3160°
Eccentricity
0.0010730
Mean motion
15.41549923 rev/d
Perigee alt
434.2 km
Apogee alt
448.9 km
Semi-major
6,819.7 km
B*
1.4732e-4
RAAN
332.3462°
Arg perigee
94.4490°
Mean anomaly
265.7983°
Rev number
20,727

§ Raw data

HUYGENS1 55093U 23001CN  26264.97576525  .00006111  00000+0  14732-3 0  99922 55093  97.3160 332.3462 0010730  94.4490 265.7983 15.41549923207275

JSON: /api/v1/satellites/55093 · /tle

For live sub-satellite position, see the globe view (requires WebGL).

§ Visibility from observer

Set your observer location to see the next 7 days of passes ≥ 10°. The values pass through the URL so the page stays shareable.

No JS? Fill the form by hand. The geolocation button needs JavaScript.

§ Radio — SatNOGS DB

ModeDescriptionDownlinkUplink
FM Mode U - TLM 401.500 MHz
BPSK S-band telemetry 2.207 GHz
BPSK Wideband data (512000) 2.207 GHz

3 transmitters · refreshed weekly from db.satnogs.org